| time (UTC) | temp C | wind direction | speed KPH | gust KPH | rain 1hr cm | rain 24hr cm | rain mn cm | humidity % | barometer mb |
| 20260508083048 | 8 | 102 | 3.2 | 11.3 | 0.00 | 0.23 | 0.08 | 70 | 1023.2 |
| 20260508082542 | 7 | 98 | 3.2 | 11.3 | 0.00 | 0.23 | 0.08 | 72 | 1023.2 |
| 20260508082043 | 7 | 95 | 1.6 | 11.3 | 0.00 | 0.23 | 0.08 | 73 | 1023.1 |
| 20260508081556 | 7 | 91 | 0.0 | 11.3 | 0.00 | 0.23 | 0.08 | 74 | 1023.1 |
| 20260508081042 | 7 | 91 | 3.2 | 11.3 | 0.00 | 0.23 | 0.08 | 74 | 1023.2 |
| 20260508080542 | 7 | 98 | 0.0 | 11.3 | 0.00 | 0.23 | 0.08 | 76 | 1023.1 |
| 20260508080049 | 6 | 106 | 3.2 | 11.3 | 0.00 | 0.23 | 0.08 | 75 | 1023.1 |
| 20260508075542 | 6 | 82 | 1.6 | 11.3 | 0.00 | 0.23 | 0.08 | 77 | 1023.1 |
| 20260508075042 | 6 | 106 | 0.0 | 9.7 | 0.00 | 0.23 | 0.08 | 79 | 1023.1 |
| 20260508074544 | 6 | 103 | 0.0 | 3.2 | 0.00 | 0.23 | 0.08 | 79 | 1023.0 |
| 20260508074042 | 6 | 0 | 0.0 | 9.7 | 0.00 | 0.23 | 0.08 | 81 | 1023.0 |
| 20260508073542 | 5 | 0 | 3.2 | 9.7 | 0.00 | 0.23 | 0.08 | 80 | 1023.0 |
| 20260508073048 | 5 | 98 | 0.0 | 6.4 | 0.00 | 0.23 | 0.08 | 82 | 1023.0 |
| 20260508072542 | 5 | 91 | 0.0 | 6.4 | 0.00 | 0.23 | 0.08 | 82 | 1023.0 |
| 20260508072042 | 5 | 0 | 0.0 | 3.2 | 0.00 | 0.23 | 0.08 | 82 | 1022.9 |
| 20260508071550 | 5 | 0 | 0.0 | 3.2 | 0.00 | 0.23 | 0.08 | 81 | 1022.9 |
| 20260508071041 | 4 | 0 | 0.0 | 3.2 | 0.00 | 0.23 | 0.08 | 81 | 1023.0 |
| 20260508070542 | 4 | 0 | 0.0 | 3.2 | 0.00 | 0.23 | 0.08 | 82 | 1022.8 |
| 20260508070054 | 4 | 69 | 0.0 | 3.2 | 0.00 | 0.23 | 0.08 | 84 | 1022.8 |
| 20260508065542 | 4 | 69 | 0.0 | 1.6 | 0.00 | 0.28 | 0.08 | 84 | 1022.7 |
| 20260508065043 | 4 | 0 | 0.0 | 0.0 | 0.00 | 0.28 | 0.08 | 83 | 1022.7 |
| 20260508064606 | 3 | 0 | 0.0 | 0.0 | 0.00 | 0.28 | 0.08 | 83 | 1022.7 |
| 20260508064042 | 3 | 0 | 0.0 | 0.0 | 0.00 | 0.28 | 0.08 | 84 | 1022.7 |
| 20260508063542 | 3 | 0 | 0.0 | 0.0 | 0.00 | 0.28 | 0.08 | 84 | 1022.7 |
| 20260508063048 | 3 | 0 | 0.0 | 0.0 | 0.00 | 0.28 | 0.08 | 84 | 1022.7 |
| 20260508062541 | 3 | 0 | 0.0 | 0.0 | 0.00 | 0.28 | 0.08 | 84 | 1022.7 |
| 20260508062042 | 3 | 0 | 0.0 | 0.0 | 0.00 | 0.28 | 0.08 | 85 | 1022.7 |
| 20260508061559 | 3 | 0 | 0.0 | 0.0 | 0.00 | 0.28 | 0.08 | 85 | 1022.6 |
| 20260508061043 | 3 | 0 | 0.0 | 0.0 | 0.00 | 0.28 | 0.08 | 85 | 1022.5 |
| 20260508060541 | 3 | 0 | 0.0 | 0.0 | 0.00 | 0.28 | 0.08 | 85 | 1022.5 |
| 20260508060050 | 3 | 0 | 0.0 | 0.0 | 0.00 | 0.28 | 0.08 | 86 | 1022.5 |
| 20260508055545 | 3 | 0 | 0.0 | 0.0 | 0.00 | 0.28 | 0.08 | 86 | 1022.5 |
| 20260508055039 | 3 | 0 | 0.0 | 0.0 | 0.00 | 0.28 | 0.08 | 86 | 1022.5 |
| 20260508054612 | 3 | 0 | 0.0 | 0.0 | 0.00 | 0.28 | 0.08 | 86 | 1022.4 |
| 20260508054041 | 3 | 0 | 0.0 | 0.0 | 0.00 | 0.28 | 0.08 | 87 | 1022.4 |
| 20260508053544 | 2 | 0 | 0.0 | 0.0 | 0.00 | 0.28 | 0.08 | 87 | 1022.4 |
| 20260508053056 | 2 | 0 | 0.0 | 0.0 | 0.00 | 0.28 | 0.08 | 87 | 1022.3 |
| 20260508052544 | 2 | 0 | 0.0 | 0.0 | 0.00 | 0.28 | 0.08 | 87 | 1022.2 |
| 20260508052043 | 2 | 0 | 0.0 | 0.0 | 0.00 | 0.28 | 0.08 | 87 | 1022.2 |
| 20260508051549 | 2 | 0 | 0.0 | 0.0 | 0.00 | 0.28 | 0.08 | 87 | 1022.3 |
| 20260508051042 | 2 | 0 | 0.0 | 0.0 | 0.00 | 0.28 | 0.08 | 88 | 1022.2 |
| 20260508050542 | 2 | 0 | 0.0 | 0.0 | 0.00 | 0.28 | 0.08 | 88 | 1022.2 |
| 20260508050054 | 2 | 0 | 0.0 | 0.0 | 0.00 | 0.28 | 0.08 | 88 | 1022.2 |
| 20260508045541 | 2 | 0 | 0.0 | 0.0 | 0.00 | 0.28 | 0.08 | 87 | 1022.1 |
| 20260508045042 | 2 | 0 | 0.0 | 0.0 | 0.00 | 0.28 | 0.08 | 87 | 1022.0 |
| 20260508044552 | 2 | 0 | 0.0 | 0.0 | 0.00 | 0.28 | 0.08 | 87 | 1022.0 |
| 20260508044043 | 2 | 0 | 0.0 | 0.0 | 0.00 | 0.28 | 0.08 | 86 | 1021.9 |
| 20260508043542 | 2 | 0 | 0.0 | 0.0 | 0.00 | 0.28 | 0.08 | 86 | 1021.9 |
| 20260508043058 | 1 | 0 | 0.0 | 0.0 | 0.00 | 0.28 | 0.08 | 86 | 1021.9 |
| 20260508042546 | 1 | 0 | 0.0 | 0.0 | 0.00 | 0.28 | 0.08 | 86 | 1021.9 |
| 20260508042041 | 1 | 0 | 0.0 | 0.0 | 0.00 | 0.25 | 0.08 | 86 | 1021.8 |
| 20260508041555 | 1 | 0 | 0.0 | 0.0 | 0.00 | 0.25 | 0.08 | 86 | 1021.9 |
| 20260508041045 | 1 | 0 | 0.0 | 0.0 | 0.00 | 0.25 | 0.08 | 86 | 1021.9 |
| 20260508040542 | 1 | 0 | 0.0 | 0.0 | 0.00 | 0.25 | 0.08 | 86 | 1021.8 |
| 20260508035546 | 1 | 0 | 0.0 | 0.0 | 0.00 | 0.25 | 0.08 | 86 | 1021.7 |
| 20260508035042 | 1 | 0 | 0.0 | 0.0 | 0.00 | 0.25 | 0.08 | 86 | 1021.7 |
| 20260508034553 | 1 | 0 | 0.0 | 0.0 | 0.00 | 0.25 | 0.08 | 86 | 1021.7 |
| 20260508034041 | 1 | 0 | 0.0 | 0.0 | 0.00 | 0.25 | 0.08 | 85 | 1021.7 |
| 20260508033541 | 1 | 0 | 0.0 | 0.0 | 0.00 | 0.25 | 0.08 | 85 | 1021.6 |
| 20260508033051 | 1 | 0 | 0.0 | 0.0 | 0.03 | 0.25 | 0.08 | 85 | 1021.6 |
| 20260508032542 | 1 | 0 | 0.0 | 0.0 | 0.05 | 0.25 | 0.08 | 86 | 1021.6 |
| 20260508032042 | 1 | 0 | 0.0 | 0.0 | 0.05 | 0.25 | 0.08 | 86 | 1021.6 |
| 20260508031603 | 1 | 0 | 0.0 | 0.0 | 0.05 | 0.25 | 0.08 | 85 | 1021.6 |
| 20260508031042 | 1 | 0 | 0.0 | 0.0 | 0.05 | 0.25 | 0.08 | 85 | 1021.5 |
| 20260508030541 | 1 | 0 | 0.0 | 0.0 | 0.05 | 0.25 | 0.08 | 85 | 1021.5 |
| 20260508030106 | 1 | 0 | 0.0 | 0.0 | 0.05 | 0.25 | 0.08 | 85 | 1021.4 |
| 20260508025543 | 1 | 0 | 0.0 | 0.0 | 0.05 | 0.25 | 0.08 | 85 | 1021.4 |
| 20260508025042 | 1 | 0 | 0.0 | 0.0 | 0.05 | 0.25 | 0.08 | 85 | 1021.5 |
| 20260508024553 | 1 | 0 | 0.0 | 0.0 | 0.05 | 0.25 | 0.08 | 85 | 1021.4 |
| 20260508024042 | 1 | 0 | 0.0 | 1.6 | 0.05 | 0.25 | 0.08 | 85 | 1021.4 |
| 20260508023542 | 1 | 0 | 0.0 | 4.8 | 0.03 | 0.23 | 0.05 | 85 | 1021.4 |
| 20260508023053 | 1 | 0 | 1.6 | 4.8 | 0.00 | 0.20 | 0.03 | 85 | 1021.4 |
| 20260508022541 | 1 | 327 | 1.6 | 4.8 | 0.00 | 0.18 | 0.00 | 85 | 1021.5 |
| 20260508022043 | 1 | 330 | 3.2 | 4.8 | 0.00 | 0.18 | 0.00 | 85 | 1021.4 |
| 20260508021603 | 1 | 0 | 0.0 | 0.0 | 0.00 | 0.18 | 0.00 | 85 | 1021.4 |
| 20260508021042 | 1 | 0 | 0.0 | 0.0 | 0.00 | 0.18 | 0.00 | 85 | 1021.4 |
| 20260508020542 | 1 | 0 | 0.0 | 0.0 | 0.00 | 0.18 | 0.00 | 85 | 1021.2 |
| 20260508020052 | 1 | 0 | 0.0 | 0.0 | 0.00 | 0.18 | 0.00 | 85 | 1021.3 |
| 20260508015542 | 1 | 0 | 0.0 | 0.0 | 0.00 | 0.18 | 0.00 | 84 | 1021.1 |
| 20260508015042 | 1 | 0 | 0.0 | 0.0 | 0.00 | 0.18 | 0.00 | 84 | 1021.1 |
| 20260508014552 | 1 | 0 | 0.0 | 0.0 | 0.00 | 0.18 | 0.00 | 85 | 1021.0 |
| 20260508014042 | 1 | 0 | 0.0 | 0.0 | 0.00 | 0.18 | 0.00 | 85 | 1021.0 |
| 20260508013541 | 1 | 0 | 0.0 | 0.0 | 0.00 | 0.18 | 0.00 | 85 | 1021.0 |
| 20260508013050 | 1 | 0 | 0.0 | 0.0 | 0.00 | 0.18 | 0.00 | 85 | 1020.8 |
| 20260508012541 | 1 | 0 | 0.0 | 0.0 | 0.00 | 0.18 | 0.00 | 85 | 1020.9 |
| 20260508012044 | 1 | 0 | 0.0 | 0.0 | 0.00 | 0.18 | 0.00 | 85 | 1020.8 |
| 20260508011554 | 1 | 0 | 0.0 | 0.0 | 0.00 | 0.18 | 0.00 | 85 | 1020.8 |
| 20260508011043 | 1 | 0 | 0.0 | 0.0 | 0.00 | 0.18 | 0.00 | 86 | 1020.7 |
| 20260508010541 | 1 | 0 | 0.0 | 0.0 | 0.00 | 0.18 | 0.00 | 85 | 1020.8 |
| 20260508010050 | 1 | 0 | 0.0 | 0.0 | 0.00 | 0.18 | 0.00 | 86 | 1020.7 |
| 20260508005543 | 1 | 0 | 0.0 | 0.0 | 0.00 | 0.18 | 0.00 | 85 | 1020.8 |
| 20260508005045 | 1 | 0 | 0.0 | 0.0 | 0.00 | 0.18 | 0.00 | 85 | 1020.8 |
| 20260508004550 | 1 | 0 | 0.0 | 0.0 | 0.00 | 0.18 | 0.00 | 85 | 1020.7 |
| 20260508004042 | 1 | 0 | 0.0 | 0.0 | 0.00 | 0.18 | 0.00 | 85 | 1020.7 |
| 20260508003541 | 1 | 0 | 0.0 | 0.0 | 0.00 | 0.18 | 0.00 | 85 | 1020.7 |
| 20260508003049 | 1 | 0 | 0.0 | 0.0 | 0.00 | 0.18 | 0.00 | 85 | 1020.5 |
| 20260508002541 | 1 | 0 | 0.0 | 0.0 | 0.00 | 0.18 | 0.00 | 85 | 1020.5 |
| 20260508002045 | 1 | 0 | 0.0 | 0.0 | 0.00 | 0.18 | 0.00 | 85 | 1020.4 |
| 20260508001547 | 1 | 0 | 0.0 | 0.0 | 0.00 | 0.18 | 0.00 | 85 | 1020.5 |
| 20260508001043 | 1 | 0 | 0.0 | 0.0 | 0.00 | 0.18 | 0.00 | 86 | 1020.4 |
| 20260508000542 | 1 | 0 | 0.0 | 0.0 | 0.00 | 0.18 | 0.00 | 86 | 1020.4 |
| 20260508000105 | 1 | 0 | 0.0 | 0.0 | 0.00 | 0.18 | 0.00 | 86 | 1020.4 |
| 20260507235544 | 1 | 0 | 0.0 | 0.0 | 0.00 | 0.20 | 0.00 | 86 | 1020.2 |
| 20260507235042 | 1 | 0 | 0.0 | 0.0 | 0.00 | 0.20 | 0.00 | 86 | 1020.1 |
| 20260507234556 | 1 | 0 | 0.0 | 9.7 | 0.00 | 0.20 | 0.00 | 86 | 1020.1 |
| 20260507234043 | 1 | 0 | 0.0 | 14.5 | 0.00 | 0.20 | 0.00 | 86 | 1020.0 |
| 20260507233541 | 1 | 296 | 8.0 | 14.5 | 0.00 | 0.20 | 0.00 | 86 | 1020.0 |
| 20260507233051 | 1 | 327 | 6.4 | 17.7 | 0.00 | 0.18 | 0.00 | 86 | 1020.0 |
| 20260507232541 | 1 | 253 | 6.4 | 17.7 | 0.00 | 0.18 | 0.00 | 87 | 1020.0 |
| 20260507232134 | 1 | 284 | 9.7 | 22.5 | 0.00 | 0.18 | 0.00 | 87 | 1020.1 |
| 20260507231558 | 1 | 234 | 8.0 | 22.5 | 0.00 | 0.18 | 0.00 | 87 | 1020.0 |
| 20260507231041 | 1 | 246 | 11.3 | 22.5 | 0.00 | 0.18 | 0.00 | 87 | 1020.0 |
| 20260507230545 | 1 | 242 | 6.4 | 19.3 | 0.00 | 0.18 | 0.00 | 87 | 1020.0 |
| 20260507230047 | 1 | 212 | 1.6 | 19.3 | 0.00 | 0.18 | 0.00 | 86 | 1020.1 |
| 20260507225541 | 0 | 244 | 3.2 | 11.3 | 0.00 | 0.23 | 0.00 | 85 | 1020.1 |
| 20260507225042 | 0 | 0 | 0.0 | 0.0 | 0.00 | 0.23 | 0.00 | 82 | 1019.8 |
| 20260507224551 | 0 | 0 | 0.0 | 0.0 | 0.00 | 0.23 | 0.00 | 82 | 1019.7 |
| 20260507224041 | 0 | 0 | 0.0 | 0.0 | 0.00 | 0.23 | 0.00 | 82 | 1019.6 |
| 20260507223544 | 0 | 0 | 0.0 | 0.0 | 0.00 | 0.23 | 0.00 | 82 | 1019.6 |
| 20260507223055 | 0 | 0 | 0.0 | 0.0 | 0.00 | 0.23 | 0.00 | 81 | 1019.5 |
| 20260507222541 | 1 | 0 | 0.0 | 0.0 | 0.00 | 0.23 | 0.00 | 81 | 1019.5 |
| 20260507222041 | 1 | 0 | 0.0 | 0.0 | 0.00 | 0.23 | 0.00 | 81 | 1019.5 |
| 20260507221544 | 1 | 0 | 0.0 | 0.0 | 0.00 | 0.23 | 0.00 | 81 | 1019.5 |
| 20260507221041 | 1 | 0 | 0.0 | 0.0 | 0.00 | 0.23 | 0.00 | 81 | 1019.4 |
| 20260507220541 | 1 | 0 | 0.0 | 0.0 | 0.00 | 0.23 | 0.00 | 81 | 1019.4 |
| 20260507220053 | 1 | 0 | 0.0 | 1.6 | 0.00 | 0.23 | 0.00 | 81 | 1019.3 |
| 20260507215542 | 1 | 0 | 0.0 | 3.2 | 0.00 | 0.28 | 0.23 | 81 | 1019.3 |
| 20260507215042 | 1 | 0 | 0.0 | 3.2 | 0.00 | 0.28 | 0.23 | 82 | 1019.3 |
| 20260507214554 | 1 | 0 | 0.0 | 3.2 | 0.00 | 0.28 | 0.23 | 81 | 1019.2 |
| 20260507214041 | 1 | 0 | 0.0 | 4.8 | 0.00 | 0.28 | 0.23 | 82 | 1019.2 |
| 20260507213542 | 1 | 321 | 0.0 | 4.8 | 0.00 | 0.28 | 0.23 | 82 | 1019.2 |
| 20260507213048 | 1 | 321 | 1.6 | 4.8 | 0.00 | 0.28 | 0.23 | 82 | 1019.1 |
| 20260507212544 | 1 | 320 | 1.6 | 3.2 | 0.00 | 0.28 | 0.23 | 82 | 1019.1 |
| 20260507212041 | 1 | 0 | 0.0 | 4.8 | 0.00 | 0.28 | 0.23 | 82 | 1019.1 |
| 20260507211558 | 1 | 0 | 1.6 | 4.8 | 0.00 | 0.28 | 0.23 | 82 | 1019.1 |
| 20260507211041 | 1 | 0 | 0.0 | 1.6 | 0.00 | 0.28 | 0.23 | 81 | 1019.0 |
| 20260507210541 | 1 | 0 | 0.0 | 1.6 | 0.00 | 0.28 | 0.23 | 81 | 1019.0 |
| 20260507210049 | 2 | 0 | 0.0 | 0.0 | 0.00 | 0.28 | 0.23 | 81 | 1018.9 |
| 20260507205541 | 2 | 0 | 0.0 | 0.0 | 0.00 | 0.30 | 0.23 | 81 | 1018.8 |
| 20260507205042 | 2 | 0 | 0.0 | 0.0 | 0.00 | 0.30 | 0.23 | 81 | 1018.7 |
| 20260507204548 | 2 | 0 | 0.0 | 0.0 | 0.00 | 0.30 | 0.23 | 81 | 1018.7 |
| 20260507204041 | 2 | 0 | 0.0 | 0.0 | 0.00 | 0.30 | 0.23 | 81 | 1018.6 |
| 20260507203541 | 2 | 0 | 0.0 | 1.6 | 0.00 | 0.30 | 0.23 | 81 | 1018.6 |
| 20260507203043 | 2 | 0 | 0.0 | 1.6 | 0.00 | 0.30 | 0.23 | 81 | 1018.5 |
| 20260507202543 | 2 | 0 | 0.0 | 1.6 | 0.00 | 0.30 | 0.23 | 81 | 1018.5 |
| 20260507202041 | 2 | 0 | 0.0 | 4.8 | 0.00 | 0.30 | 0.23 | 81 | 1018.4 |
| 20260507201547 | 2 | 0 | 0.0 | 4.8 | 0.00 | 0.30 | 0.23 | 81 | 1018.3 |
| 20260507201042 | 2 | 349 | 0.0 | 4.8 | 0.00 | 0.30 | 0.23 | 81 | 1018.3 |
| 20260507200541 | 2 | 0 | 0.0 | 0.0 | 0.00 | 0.30 | 0.23 | 81 | 1018.3 |
| 20260507200045 | 2 | 0 | 0.0 | 1.6 | 0.00 | 0.30 | 0.23 | 81 | 1018.3 |
| 20260507195541 | 3 | 0 | 0.0 | 1.6 | 0.00 | 0.36 | 0.23 | 82 | 1018.3 |
| 20260507195041 | 3 | 0 | 0.0 | 0.0 | 0.03 | 0.36 | 0.23 | 82 | 1018.2 |
| 20260507194551 | 3 | 0 | 0.0 | 0.0 | 0.05 | 0.36 | 0.23 | 82 | 1018.1 |
| 20260507194042 | 3 | 0 | 0.0 | 0.0 | 0.08 | 0.36 | 0.23 | 83 | 1018.0 |
| 20260507193541 | 3 | 0 | 0.0 | 0.0 | 0.08 | 0.36 | 0.23 | 83 | 1018.1 |
| 20260507193056 | 3 | 0 | 0.0 | 0.0 | 0.08 | 0.36 | 0.23 | 82 | 1018.0 |
| 20260507192541 | 2 | 0 | 0.0 | 0.0 | 0.08 | 0.36 | 0.23 | 82 | 1017.9 |
| 20260507192042 | 2 | 0 | 0.0 | 3.2 | 0.08 | 0.36 | 0.23 | 82 | 1017.9 |
| 20260507191552 | 2 | 0 | 0.0 | 4.8 | 0.08 | 0.36 | 0.23 | 82 | 1017.8 |
| 20260507191042 | 2 | 0 | 1.6 | 6.4 | 0.08 | 0.36 | 0.23 | 82 | 1017.8 |
| 20260507190542 | 2 | 318 | 1.6 | 8.0 | 0.08 | 0.36 | 0.23 | 81 | 1017.7 |
| 20260507190047 | 2 | 310 | 3.2 | 11.3 | 0.08 | 0.36 | 0.23 | 81 | 1017.8 |
| 20260507185541 | 3 | 223 | 4.8 | 14.5 | 0.08 | 0.38 | 0.23 | 80 | 1017.9 |
| 20260507185041 | 3 | 270 | 4.8 | 17.7 | 0.03 | 0.36 | 0.18 | 80 | 1017.9 |
| 20260507184550 | 3 | 275 | 8.0 | 20.9 | 0.00 | 0.33 | 0.18 | 80 | 1017.9 |
| 20260507184041 | 3 | 267 | 11.3 | 20.9 | 0.00 | 0.30 | 0.15 | 80 | 1017.8 |
| 20260507183541 | 3 | 260 | 6.4 | 17.7 | 0.00 | 0.30 | 0.15 | 79 | 1017.6 |
| 20260507183049 | 4 | 250 | 3.2 | 8.0 | 0.00 | 0.30 | 0.15 | 79 | 1017.4 |
| 20260507182541 | 4 | 0 | 0.0 | 6.4 | 0.00 | 0.30 | 0.15 | 79 | 1017.2 |
| 20260507182041 | 4 | 0 | 0.0 | 6.4 | 0.00 | 0.30 | 0.15 | 79 | 1017.3 |
| 20260507181553 | 4 | 0 | 1.6 | 6.4 | 0.00 | 0.30 | 0.15 | 78 | 1017.2 |
| 20260507181041 | 4 | 249 | 1.6 | 4.8 | 0.00 | 0.30 | 0.15 | 78 | 1017.2 |
| 20260507180546 | 4 | 255 | 0.0 | 4.8 | 0.00 | 0.30 | 0.15 | 79 | 1017.1 |
| 20260507180051 | 4 | 256 | 1.6 | 11.3 | 0.00 | 0.30 | 0.15 | 78 | 1017.1 |
| 20260507175543 | 4 | 249 | 3.2 | 11.3 | 0.00 | 0.36 | 0.15 | 79 | 1017.0 |
| 20260507175043 | 4 | 250 | 3.2 | 12.9 | 0.00 | 0.36 | 0.15 | 79 | 1017.1 |
| 20260507174614 | 4 | 242 | 4.8 | 16.1 | 0.00 | 0.36 | 0.15 | 78 | 1017.2 |
| 20260507174042 | 5 | 242 | 8.0 | 16.1 | 0.00 | 0.36 | 0.15 | 77 | 1017.2 |
| 20260507173543 | 5 | 237 | 6.4 | 12.9 | 0.00 | 0.36 | 0.15 | 76 | 1017.1 |
| 20260507173048 | 5 | 242 | 4.8 | 11.3 | 0.00 | 0.36 | 0.15 | 75 | 1017.0 |
| 20260507172543 | 5 | 221 | 3.2 | 8.0 | 0.00 | 0.36 | 0.15 | 75 | 1017.0 |
| 20260507172044 | 5 | 257 | 3.2 | 11.3 | 0.00 | 0.36 | 0.15 | 75 | 1017.0 |
| 20260507171602 | 5 | 254 | 3.2 | 11.3 | 0.00 | 0.36 | 0.15 | 75 | 1017.0 |
| 20260507171043 | 5 | 287 | 4.8 | 9.7 | 0.00 | 0.36 | 0.15 | 75 | 1017.1 |
| 20260507170543 | 5 | 192 | 3.2 | 12.9 | 0.00 | 0.36 | 0.15 | 74 | 1017.0 |
| 20260507170052 | 5 | 194 | 6.4 | 12.9 | 0.00 | 0.36 | 0.15 | 74 | 1017.0 |
| 20260507165546 | 5 | 189 | 3.2 | 14.5 | 0.00 | 0.48 | 0.15 | 75 | 1017.0 |
| 20260507165043 | 5 | 301 | 4.8 | 16.1 | 0.00 | 0.48 | 0.15 | 75 | 1016.9 |
| 20260507164553 | 5 | 257 | 8.0 | 16.1 | 0.00 | 0.48 | 0.15 | 75 | 1017.0 |
| 20260507164043 | 5 | 242 | 4.8 | 17.7 | 0.00 | 0.48 | 0.15 | 75 | 1016.9 |
| 20260507163543 | 5 | 253 | 8.0 | 17.7 | 0.00 | 0.48 | 0.15 | 75 | 1016.9 |
| 20260507163051 | 5 | 316 | 9.7 | 17.7 | 0.00 | 0.48 | 0.15 | 75 | 1017.0 |
| 20260507162543 | 5 | 238 | 1.6 | 14.5 | 0.00 | 0.48 | 0.15 | 77 | 1016.8 |
| 20260507162045 | 5 | 257 | 6.4 | 14.5 | 0.00 | 0.48 | 0.15 | 77 | 1016.9 |
| 20260507161552 | 5 | 217 | 8.0 | 14.5 | 0.00 | 0.48 | 0.15 | 77 | 1016.7 |
| 20260507161042 | 5 | 252 | 8.0 | 12.9 | 0.00 | 0.48 | 0.15 | 78 | 1016.8 |
| 20260507160544 | 4 | 196 | 4.8 | 12.9 | 0.00 | 0.48 | 0.15 | 78 | 1016.7 |
| 20260507160110 | 4 | 240 | 4.8 | 14.5 | 0.00 | 0.48 | 0.15 | 78 | 1016.8 |
| 20260507155542 | 4 | 281 | 6.4 | 14.5 | 0.00 | 0.61 | 0.15 | 79 | 1016.7 |
| 20260507155044 | 4 | 253 | 6.4 | 14.5 | 0.00 | 0.61 | 0.15 | 78 | 1016.8 |
| 20260507154552 | 4 | 268 | 6.4 | 14.5 | 0.00 | 0.61 | 0.15 | 78 | 1016.7 |
| 20260507154044 | 4 | 271 | 3.2 | 14.5 | 0.00 | 0.61 | 0.15 | 77 | 1016.7 |
| 20260507153546 | 4 | 261 | 4.8 | 14.5 | 0.00 | 0.61 | 0.15 | 77 | 1016.8 |
| 20260507153047 | 4 | 257 | 8.0 | 16.1 | 0.00 | 0.61 | 0.15 | 77 | 1016.7 |
| 20260507152553 | 4 | 273 | 6.4 | 16.1 | 0.00 | 0.61 | 0.15 | 77 | 1016.8 |
| 20260507152046 | 4 | 266 | 8.0 | 16.1 | 0.00 | 0.61 | 0.15 | 76 | 1016.8 |
| 20260507151557 | 5 | 216 | 9.7 | 19.3 | 0.00 | 0.61 | 0.15 | 76 | 1016.9 |
| 20260507151043 | 5 | 251 | 11.3 | 19.3 | 0.00 | 0.61 | 0.15 | 75 | 1016.9 |
| 20260507150557 | 5 | 315 | 8.0 | 19.3 | 0.00 | 0.61 | 0.15 | 76 | 1016.9 |
| 20260507150053 | 5 | 262 | 6.4 | 25.7 | 0.00 | 0.61 | 0.15 | 76 | 1016.7 |
| 20260507145547 | 5 | 243 | 12.9 | 25.7 | 0.00 | 0.61 | 0.15 | 75 | 1016.7 |
| 20260507145044 | 5 | 240 | 8.0 | 17.7 | 0.00 | 0.61 | 0.15 | 74 | 1016.6 |
| 20260507144548 | 5 | 306 | 6.4 | 16.1 | 0.00 | 0.61 | 0.15 | 73 | 1016.4 |
| 20260507144043 | 5 | 261 | 6.4 | 14.5 | 0.00 | 0.61 | 0.15 | 72 | 1016.4 |
| 20260507143543 | 5 | 233 | 6.4 | 14.5 | 0.00 | 0.61 | 0.15 | 71 | 1016.3 |
| 20260507143058 | 5 | 267 | 6.4 | 19.3 | 0.00 | 0.61 | 0.15 | 72 | 1016.4 |
| 20260507142546 | 5 | 240 | 8.0 | 19.3 | 0.00 | 0.61 | 0.15 | 71 | 1016.4 |
| 20260507142043 | 5 | 223 | 8.0 | 17.7 | 0.00 | 0.61 | 0.15 | 71 | 1016.4 |
| 20260507141553 | 6 | 223 | 9.7 | 17.7 | 0.00 | 0.61 | 0.15 | 72 | 1016.4 |
| 20260507141043 | 6 | 235 | 8.0 | 14.5 | 0.00 | 0.61 | 0.15 | 74 | 1016.4 |
| 20260507140543 | 6 | 258 | 4.8 | 16.1 | 0.00 | 0.61 | 0.15 | 75 | 1016.3 |
| 20260507140110 | 6 | 255 | 4.8 | 19.3 | 0.00 | 0.61 | 0.15 | 74 | 1016.2 |
| 20260507135543 | 6 | 244 | 8.0 | 20.9 | 0.00 | 0.61 | 0.15 | 74 | 1016.1 |
| 20260507135043 | 6 | 234 | 11.3 | 20.9 | 0.00 | 0.61 | 0.15 | 74 | 1016.0 |
| 20260507134555 | 6 | 265 | 11.3 | 20.9 | 0.00 | 0.61 | 0.15 | 73 | 1016.0 |
| 20260507134043 | 6 | 252 | 12.9 | 20.9 | 0.00 | 0.61 | 0.15 | 73 | 1016.0 |
| 20260507133543 | 6 | 245 | 6.4 | 12.9 | 0.00 | 0.61 | 0.15 | 73 | 1015.9 |
| 20260507133056 | 6 | 243 | 6.4 | 17.7 | 0.00 | 0.61 | 0.15 | 72 | 1015.9 |
| 20260507132543 | 6 | 251 | 6.4 | 17.7 | 0.00 | 0.61 | 0.15 | 70 | 1015.9 |
| 20260507132042 | 6 | 209 | 6.4 | 17.7 | 0.00 | 0.61 | 0.15 | 70 | 1015.8 |
| 20260507131618 | 6 | 235 | 8.0 | 17.7 | 0.00 | 0.61 | 0.15 | 70 | 1015.9 |
| 20260507131043 | 6 | 288 | 6.4 | 14.5 | 0.00 | 0.61 | 0.15 | 71 | 1016.0 |
| 20260507130544 | 6 | 250 | 4.8 | 19.3 | 0.00 | 0.61 | 0.15 | 72 | 1015.9 |
| 20260507130050 | 6 | 178 | 9.7 | 19.3 | 0.00 | 0.61 | 0.15 | 70 | 1015.9 |
| 20260507125543 | 6 | 240 | 9.7 | 17.7 | 0.00 | 0.61 | 0.15 | 70 | 1015.9 |
| 20260507125043 | 6 | 275 | 8.0 | 19.3 | 0.00 | 0.61 | 0.15 | 69 | 1015.9 |
| 20260507124600 | 6 | 230 | 9.7 | 20.9 | 0.00 | 0.61 | 0.15 | 68 | 1015.9 |
| 20260507124044 | 6 | 299 | 4.8 | 20.9 | 0.00 | 0.61 | 0.15 | 72 | 1015.7 |
| 20260507123543 | 6 | 209 | 8.0 | 20.9 | 0.00 | 0.61 | 0.15 | 69 | 1015.8 |
| 20260507123051 | 6 | 265 | 8.0 | 17.7 | 0.00 | 0.61 | 0.15 | 71 | 1015.7 |
| 20260507122543 | 6 | 194 | 4.8 | 16.1 | 0.00 | 0.61 | 0.15 | 72 | 1015.6 |
| 20260507122047 | 6 | 213 | 6.4 | 16.1 | 0.00 | 0.61 | 0.15 | 74 | 1015.7 |
| 20260507121556 | 6 | 261 | 8.0 | 17.7 | 0.00 | 0.61 | 0.15 | 76 | 1015.6 |
| 20260507121043 | 5 | 186 | 6.4 | 17.7 | 0.00 | 0.61 | 0.15 | 78 | 1015.5 |
| 20260507120542 | 5 | 315 | 4.8 | 12.9 | 0.00 | 0.61 | 0.15 | 79 | 1015.6 |
| 20260507120051 | 5 | 242 | 4.8 | 12.9 | 0.00 | 0.61 | 0.15 | 79 | 1015.7 |
| 20260507115543 | 5 | 175 | 4.8 | 14.5 | 0.00 | 0.61 | 0.15 | 80 | 1015.6 |
| 20260507115043 | 5 | 259 | 8.0 | 14.5 | 0.00 | 0.61 | 0.15 | 79 | 1015.7 |
| 20260507114549 | 5 | 171 | 4.8 | 14.5 | 0.00 | 0.61 | 0.15 | 79 | 1015.6 |
| 20260507114051 | 5 | 165 | 4.8 | 11.3 | 0.00 | 0.61 | 0.15 | 81 | 1015.6 |
| 20260507113545 | 5 | 197 | 1.6 | 6.4 | 0.00 | 0.61 | 0.15 | 80 | 1015.6 |
| 20260507113107 | 5 | 314 | 1.6 | 14.5 | 0.00 | 0.61 | 0.15 | 79 | 1015.4 |
| 20260507112545 | 5 | 0 | 3.2 | 16.1 | 0.00 | 0.61 | 0.15 | 78 | 1015.5 |
| 20260507112042 | 5 | 259 | 8.0 | 19.3 | 0.00 | 0.61 | 0.15 | 77 | 1015.4 |
| 20260507111545 | 5 | 315 | 8.0 | 22.5 | 0.00 | 0.61 | 0.15 | 77 | 1015.3 |
| 20260507111042 | 5 | 219 | 12.9 | 22.5 | 0.00 | 0.61 | 0.15 | 75 | 1015.2 |
| 20260507110543 | 5 | 221 | 8.0 | 22.5 | 0.00 | 0.61 | 0.15 | 77 | 1015.1 |
| 20260507110051 | 5 | 263 | 8.0 | 20.9 | 0.00 | 0.61 | 0.15 | 78 | 1014.9 |
| 20260507105542 | 5 | 258 | 8.0 | 17.7 | 0.00 | 0.61 | 0.15 | 77 | 1014.8 |
| 20260507105043 | 5 | 240 | 9.7 | 19.3 | 0.00 | 0.61 | 0.15 | 77 | 1014.8 |
| 20260507104559 | 5 | 196 | 6.4 | 19.3 | 0.00 | 0.61 | 0.15 | 77 | 1014.8 |
| 20260507104043 | 5 | 253 | 9.7 | 19.3 | 0.00 | 0.61 | 0.15 | 77 | 1014.7 |
| 20260507103543 | 5 | 250 | 4.8 | 16.1 | 0.00 | 0.61 | 0.15 | 75 | 1014.6 |
| 20260507103049 | 5 | 244 | 9.7 | 16.1 | 0.00 | 0.61 | 0.15 | 74 | 1014.6 |
| 20260507102542 | 5 | 230 | 8.0 | 16.1 | 0.00 | 0.61 | 0.15 | 75 | 1014.5 |
| 20260507102042 | 5 | 236 | 8.0 | 16.1 | 0.00 | 0.61 | 0.15 | 75 | 1014.6 |
| 20260507101554 | 5 | 192 | 8.0 | 16.1 | 0.00 | 0.61 | 0.15 | 76 | 1014.6 |
| 20260507101042 | 5 | 249 | 6.4 | 17.7 | 0.00 | 0.61 | 0.15 | 77 | 1014.6 |
| 20260507100542 | 5 | 300 | 9.7 | 19.3 | 0.00 | 0.61 | 0.15 | 76 | 1014.5 |
| 20260507100056 | 5 | 273 | 6.4 | 19.3 | 0.00 | 0.61 | 0.15 | 76 | 1014.5 |
| 20260507095545 | 5 | 214 | 11.3 | 19.3 | 0.00 | 0.61 | 0.15 | 78 | 1014.4 |
| 20260507095043 | 5 | 257 | 8.0 | 12.9 | 0.00 | 0.61 | 0.15 | 78 | 1014.5 |
| 20260507094555 | 5 | 180 | 6.4 | 12.9 | 0.00 | 0.61 | 0.15 | 78 | 1014.4 |
| 20260507094046 | 5 | 294 | 4.8 | 19.3 | 0.00 | 0.61 | 0.15 | 79 | 1014.4 |
| 20260507093543 | 5 | 258 | 9.7 | 19.3 | 0.00 | 0.61 | 0.15 | 79 | 1014.3 |
| 20260507093053 | 5 | 263 | 4.8 | 16.1 | 0.00 | 0.61 | 0.15 | 78 | 1014.3 |
| 20260507092543 | 5 | 227 | 8.0 | 19.3 | 0.00 | 0.61 | 0.15 | 78 | 1014.3 |
| 20260507092047 | 5 | 252 | 8.0 | 19.3 | 0.00 | 0.61 | 0.15 | 77 | 1014.3 |
| 20260507091553 | 5 | 238 | 8.0 | 17.7 | 0.00 | 0.61 | 0.15 | 76 | 1014.3 |
| 20260507091043 | 5 | 233 | 6.4 | 14.5 | 0.00 | 0.61 | 0.15 | 76 | 1014.1 |
| 20260507090542 | 5 | 243 | 6.4 | 14.5 | 0.03 | 0.61 | 0.15 | 75 | 1014.1 |
| 20260507090055 | 5 | 207 | 3.2 | 14.5 | 0.05 | 0.61 | 0.15 | 78 | 1014.0 |
| 20260507085542 | 5 | 260 | 1.6 | 11.3 | 0.05 | 0.61 | 0.15 | 81 | 1013.9 |
| 20260507085042 | 5 | 231 | 1.6 | 11.3 | 0.05 | 0.61 | 0.15 | 79 | 1014.0 |
| 20260507084558 | 5 | 167 | 3.2 | 11.3 | 0.05 | 0.61 | 0.15 | 78 | 1013.9 |
| 20260507084042 | 5 | 170 | 6.4 | 14.5 | 0.05 | 0.61 | 0.15 | 78 | 1013.9 |
| 20260507083542 | 5 | 191 | 4.8 | 19.3 | 0.05 | 0.61 | 0.15 | 79 | 1013.8 |